Location: Ladrillo (historical)
(32.8195°N, 117.2231°W)
Time: 16:26:20
(UTC+00:00)

ISS - Visible Passes

Search period start: 30 November 2021 00:00
Search period end: 10 December 2021 00:00
Orbit: 417 x 423 km, 51.6° (Epoch: 30 November)

Date Brightness Start Highest point End Pass type
(mag) Time Alt. Az. Time Alt. Az. Time Alt. Az.
05 Dec -1.2 02:22:47 10° NNW 02:23:16 13° NNW 02:23:16 13° NNW visible
06 Dec -1.9 01:36:07 10° N 01:38:13 15° NNE 01:38:33 15° NE visible
07 Dec -3.0 02:24:40 10° NW 02:27:09 45° NNW 02:27:09 45° NNW visible
08 Dec -3.3 01:37:33 10° NNW 01:40:47 40° NE 01:43:06 17° ESE visible
08 Dec -0.3 03:15:28 10° W 03:16:11 12° WSW 03:16:11 12° WSW visible
09 Dec -1.5 02:27:21 10° WNW 02:30:13 26° SW 02:32:46 12° S visible
